Total_Precipitation_Accumulation
0.91 1.00 1.09 1.13 1.14 1.18 1.22 1.24 1.27 1.32 1.23 1.09 1.06 1.05 0.99 0.97 1.11 0.85 0.74 0.88 0.83 0.75 0.68 0.61 0.54 0.49 0.47 0.46 0.45 0.45 0.45 0.44 0.44 0.47 0.51 0.59 0.67 0.75
0.70 0.78 0.89 0.99 1.05 1.11 1.16 1.15 1.09 1.07 1.11 1.02 0.95 0.96 0.94 0.90 0.98 0.72 0.69 0.77 0.65 0.58 0.52 0.48 0.44 0.39 0.37 0.36 0.38 0.38 0.37 0.36 0.36 0.36 0.38 0.40 0.47 0.56
0.71 0.76 0.81 0.87 0.92 0.94 0.95 0.97 1.02 1.05 1.12 1.12 1.01 0.94 0.88 0.84 0.80 0.68 0.60 0.56 0.53 0.52 0.46 0.41 0.36 0.32 0.29 0.28 0.28 0.28 0.28 0.27 0.27 0.27 0.29 0.31 0.32 0.36
0.59 0.62 0.64 0.65 0.71 0.77 0.81 0.82 0.86 0.91 0.98 1.04 0.98 0.85 0.78 0.70 0.64 0.60 0.50 0.44 0.42 0.44 0.41 0.36 0.32 0.28 0.25 0.22 0.20 0.18 0.17 0.17 0.18 0.19 0.21 0.24 0.27 0.30
0.47 0.47 0.47 0.48 0.51 0.53 0.56 0.62 0.65 0.67 0.71 0.76 0.78 0.70 0.65 0.58 0.55 0.51 0.45 0.45 0.36 0.35 0.31 0.27 0.24 0.21 0.18 0.15 0.14 0.13 0.12 0.10 0.08 0.09 0.11 0.14 0.17 0.19
0.31 0.31 0.33 0.35 0.37 0.39 0.40 0.42 0.46 0.52 0.56 0.61 0.62 0.58 0.53 0.47 0.50 0.49 0.44 0.41 0.34 0.25 0.25 0.21 0.18 0.14 0.13 0.12 0.12 0.10 0.09 0.08 0.07 0.07 0.06 0.06 0.06 0.07
0.21 0.20 0.21 0.26 0.31 0.31 0.32 0.36 0.42 0.48 0.50 0.52 0.50 0.46 0.43 0.46 0.47 0.44 0.40 0.35 0.30 0.25 0.28 0.27 0.27 0.28 0.28 0.22 0.15 0.10 0.08 0.06 0.05 0.04 0.04 0.04 0.04 0.04
0.19 0.20 0.20 0.22 0.24 0.24 0.28 0.36 0.46 0.48 0.47 0.49 0.47 0.46 0.43 0.44 0.45 0.42 0.42 0.42 0.42 0.32 0.34 0.32 0.30 0.34 0.33 0.30 0.20 0.12 0.08 0.07 0.05 0.04 0.03 0.03 0.03 0.04
0.19 0.19 0.18 0.18 0.20 0.21 0.24 0.29 0.33 0.36 0.41 0.48 0.53 0.51 0.50 0.51 0.53 0.50 0.50 0.52 0.50 0.40 0.46 0.44 0.32 0.31 0.24 0.19 0.16 0.11 0.09 0.08 0.06 0.04 0.03 0.03 0.03 0.03
0.18 0.19 0.20 0.21 0.21 0.21 0.21 0.23 0.28 0.34 0.35 0.36 0.46 0.48 0.45 0.46 0.50 0.52 0.53 0.55 0.55 0.50 0.54 0.55 0.35 0.29 0.23 0.28 0.24 0.15 0.11 0.10 0.08 0.06 0.05 0.03 0.03 0.03
0.16 0.16 0.19 0.22 0.23 0.21 0.21 0.28 0.34 0.38 0.31 0.30 0.37 0.42 0.43 0.44 0.43 0.47 0.62 0.74 0.70 0.53 0.52 0.56 0.44 0.35 0.29 0.31 0.28 0.20 0.15 0.13 0.09 0.07 0.07 0.07 0.07 0.07
0.15 0.17 0.18 0.18 0.19 0.17 0.19 0.28 0.38 0.40 0.36 0.41 0.51 0.54 0.54 0.60 0.55 0.56 0.70 0.77 0.74 0.68 0.56 0.56 0.52 0.48 0.45 0.33 0.31 0.30 0.28 0.23 0.15 0.13 0.10 0.10 0.13 0.16
0.17 0.24 0.24 0.16 0.14 0.16 0.19 0.24 0.31 0.30 0.38 0.53 0.61 0.60 0.60 0.64 0.61 0.55 0.62 0.70 0.76 0.81 0.62 0.60 0.60 0.59 0.62 0.46 0.29 0.27 0.32 0.36 0.37 0.37 0.31 0.23 0.19 0.19
0.22 0.25 0.24 0.16 0.13 0.17 0.20 0.25 0.26 0.32 0.48 0.59 0.63 0.61 0.57 0.57 0.55 0.50 0.52 0.58 0.66 0.69 0.61 0.60 0.68 0.67 0.61 0.51 0.38 0.28 0.32 0.42 0.55 0.65 0.62 0.49 0.35 0.28
0.17 0.16 0.16 0.17 0.19 0.30 0.30 0.28 0.34 0.49 0.58 0.61 0.63 0.61 0.52 0.46 0.42 0.40 0.43 0.52 0.59 0.51 0.42 0.42 0.55 0.55 0.53 0.51 0.48 0.42 0.38 0.41 0.55 0.70 0.75 0.69 0.58 0.43
0.14 0.17 0.25 0.31 0.35 0.41 0.46 0.52 0.54 0.54 0.50 0.57 0.57 0.50 0.38 0.34 0.35 0.36 0.42 0.48 0.56 0.52 0.39 0.32 0.37 0.43 0.48 0.43 0.43 0.45 0.42 0.51 0.59 0.68 0.80 0.84 0.71 0.51
0.11 0.23 0.38 0.45 0.50 0.54 0.56 0.59 0.61 0.54 0.49 0.48 0.48 0.45 0.38 0.36 0.33 0.30 0.35 0.39 0.47 0.49 0.41 0.33 0.32 0.32 0.30 0.30 0.38 0.41 0.40 0.49 0.62 0.69 0.79 0.93 0.89 0.66
0.17 0.33 0.39 0.42 0.46 0.46 0.45 0.49 0.53 0.52 0.45 0.42 0.42 0.39 0.36 0.35 0.35 0.32 0.32 0.37 0.44 0.41 0.36 0.31 0.27 0.26 0.26 0.27 0.35 0.41 0.43 0.56 0.67 0.66 0.64 0.78 0.98 0.87
0.30 0.39 0.39 0.40 0.43 0.39 0.38 0.42 0.46 0.43 0.36 0.34 0.34 0.31 0.29 0.28 0.30 0.31 0.30 0.30 0.31 0.30 0.27 0.22 0.21 0.24 0.29 0.37 0.44 0.58 0.59 0.59 0.59 0.58 0.58 0.68 0.92 0.92
0.35 0.35 0.34 0.35 0.38 0.38 0.33 0.33 0.32 0.28 0.24 0.25 0.26 0.24 0.22 0.24 0.26 0.27 0.23 0.21 0.24 0.26 0.24 0.20 0.18 0.22 0.30 0.37 0.58 0.74 0.70 0.52 0.46 0.56 0.65 0.71 0.83 0.83
0.28 0.28 0.29 0.29 0.30 0.32 0.28 0.24 0.21 0.18 0.17 0.17 0.18 0.19 0.19 0.19 0.20 0.19 0.15 0.10 0.15 0.19 0.22 0.22 0.20 0.19 0.21 0.22 0.40 0.62 0.68 0.73 0.64 0.61 0.65 0.64 0.55 0.45
0.23 0.25 0.22 0.20 0.22 0.21 0.17 0.16 0.16 0.14 0.12 0.12 0.12 0.12 0.12 0.13 0.13 0.11 0.10 0.10 0.11 0.11 0.15 0.17 0.16 0.15 0.17 0.22 0.36 0.52 0.55 0.51 0.51 0.56 0.58 0.44 0.29 0.30
0.22 0.21 0.18 0.16 0.15 0.14 0.12 0.10 0.09 0.09 0.09 0.11 0.10 0.08 0.07 0.07 0.06 0.04 0.04 0.04 0.04 0.04 0.06 0.10 0.10 0.10 0.11 0.13 0.19 0.26 0.26 0.22 0.16 0.18 0.34 0.45 0.40 0.44